Total_Precipitation_Accumulation
1.09 0.99 1.55 1.51 1.28 1.10 1.03 1.01 1.03 1.07 1.04 0.93 0.85 0.72 0.60 0.55 0.50 0.49 0.51 0.51 0.47 0.46 0.50 0.53 0.52 0.53 0.47 0.46 0.53 0.66 0.80 0.81 0.71 0.69 0.75 0.83 0.84 0.94 1.20 1.36 1.41 1.53 1.41
0.76 0.86 1.46 1.43 1.24 1.10 1.06 1.08 1.05 1.02 0.96 0.89 0.82 0.66 0.61 0.54 0.52 0.50 0.45 0.44 0.42 0.44 0.49 0.51 0.55 0.56 0.50 0.51 0.62 0.76 0.85 0.87 0.77 0.78 0.96 1.05 1.04 1.08 1.17 1.29 1.37 1.44 1.41
0.75 0.77 1.09 1.34 1.28 1.16 1.06 1.03 1.03 1.00 0.95 0.95 0.86 0.71 0.64 0.57 0.50 0.47 0.42 0.38 0.40 0.45 0.51 0.53 0.55 0.54 0.54 0.59 0.69 0.79 0.81 0.87 0.92 1.00 1.28 1.65 1.34 1.14 1.09 1.17 1.17 1.17 1.27
0.70 0.76 1.03 1.36 1.31 1.21 1.14 1.14 1.13 1.02 0.94 0.94 0.85 0.76 0.69 0.64 0.57 0.57 0.57 0.46 0.45 0.48 0.50 0.49 0.48 0.52 0.58 0.65 0.70 0.72 0.74 0.89 1.04 1.08 1.27 1.54 1.52 1.27 1.21 1.33 1.30 1.19 1.25
0.72 0.75 1.13 1.45 1.32 1.21 1.22 1.30 1.26 1.16 1.03 0.94 0.87 0.84 0.77 0.71 0.70 0.76 0.66 0.59 0.58 0.58 0.59 0.61 0.59 0.60 0.69 0.75 0.74 0.73 0.84 1.01 1.08 0.99 1.09 1.30 1.78 1.64 1.33 1.41 1.42 1.25 1.22
0.60 0.65 1.02 1.46 1.33 1.19 1.19 1.32 1.24 1.12 1.11 1.02 0.97 0.93 0.89 0.84 0.87 0.86 0.78 0.74 0.70 0.68 0.67 0.68 0.69 0.71 0.76 0.77 0.79 0.86 1.01 1.07 0.99 1.12 1.21 1.32 1.69 1.67 1.30 1.24 1.21 1.20 1.21
0.59 0.59 0.84 1.27 1.25 1.12 1.12 1.19 1.14 1.09 1.13 1.04 0.97 0.95 0.95 0.94 0.97 1.03 0.97 0.87 0.85 0.83 0.79 0.78 0.74 0.70 0.74 0.83 0.87 0.93 1.07 0.97 0.95 1.24 1.24 1.45 1.54 1.48 1.20 1.13 1.13 1.21 1.34
0.70 0.59 0.70 1.06 1.11 1.05 1.09 1.13 1.12 1.07 1.01 0.90 0.91 0.94 0.96 0.96 1.02 1.07 1.06 0.97 0.95 0.92 0.92 0.92 0.89 0.83 0.82 0.84 0.92 0.97 1.03 0.89 0.78 1.02 1.18 1.45 1.66 1.56 1.18 1.09 1.15 1.19 1.39
1.05 0.88 0.79 0.82 0.85 0.94 1.04 1.08 1.21 1.23 1.03 0.88 0.85 0.85 0.85 0.87 0.90 0.96 1.00 0.95 0.92 0.94 0.95 0.96 0.95 0.93 0.93 0.89 0.90 0.97 1.00 0.96 0.89 0.94 0.94 1.39 1.69 1.56 1.27 1.15 1.10 1.15 1.36
1.05 1.01 0.95 0.94 0.89 0.89 0.92 1.11 1.37 1.47 1.28 1.00 0.88 0.83 0.84 0.80 0.79 0.86 0.86 0.92 0.97 1.02 1.05 1.07 1.07 1.00 1.04 1.05 1.03 1.03 1.00 0.84 0.74 0.79 0.94 1.28 1.69 1.60 1.40 1.18 1.03 0.98 1.16
0.96 0.95 0.91 0.92 0.95 1.06 1.07 1.15 1.40 1.55 1.50 1.13 0.92 0.90 0.81 0.64 0.77 0.83 0.77 0.99 1.09 1.17 1.18 1.21 1.18 1.09 1.10 1.10 1.13 1.11 0.88 0.67 0.69 0.79 1.01 1.43 1.85 1.82 1.50 1.23 1.08 0.99 0.96
0.81 0.79 0.78 0.81 0.79 0.83 0.89 1.22 1.44 1.33 1.40 1.12 1.07 0.98 0.89 0.92 0.95 0.82 0.77 0.99 1.14 1.24 1.21 1.21 1.21 1.13 0.99 0.83 0.84 0.86 0.65 0.55 0.60 0.69 1.01 1.51 1.98 2.04 1.70 1.36 1.12 0.99 0.96
0.68 0.59 0.54 0.59 0.57 0.60 0.70 0.87 1.16 1.41 1.45 1.41 1.35 1.25 1.17 1.08 0.91 0.80 0.79 0.81 0.93 1.03 0.98 1.06 1.06 0.93 0.87 0.81 0.79 0.70 0.62 0.56 0.62 0.68 1.05 1.55 1.97 2.11 1.85 1.44 1.15 1.06 1.13
0.70 0.68 0.55 0.48 0.49 0.49 0.52 0.65 0.90 1.12 1.26 1.28 1.19 1.10 1.28 1.22 0.99 0.88 0.95 0.95 0.94 0.99 1.14 1.19 1.11 1.01 0.92 0.83 0.81 0.74 0.70 0.70 0.69 0.75 1.12 1.30 1.66 1.92 2.02 1.75 1.39 1.16 1.15
0.71 0.74 0.64 0.48 0.41 0.44 0.47 0.53 0.60 0.84 1.00 1.00 1.13 1.09 1.14 1.12 0.99 0.91 0.92 1.06 1.02 1.04 1.18 1.28 1.14 1.05 1.06 1.01 0.96 0.93 0.90 0.84 0.84 0.81 1.02 1.15 1.34 1.73 2.15 2.11 1.76 1.33 1.29
0.63 0.62 0.60 0.52 0.50 0.47 0.44 0.44 0.49 0.54 0.71 0.74 0.75 0.74 0.94 1.05 1.03 1.06 0.97 1.04 1.18 1.22 1.20 1.20 1.17 1.08 1.04 1.07 1.02 1.05 1.05 0.91 0.91 0.90 1.00 1.02 1.05 1.30 1.80 2.14 1.95 1.62 1.56
0.53 0.50 0.53 0.56 0.60 0.58 0.57 0.57 0.54 0.55 0.58 0.65 0.72 0.74 0.86 0.97 1.04 1.06 0.95 0.99 1.13 1.32 1.30 1.23 1.16 1.14 0.99 0.95 1.03 1.12 1.15 1.07 1.05 1.07 1.03 1.01 0.94 1.05 1.41 1.88 2.00 1.85 1.81
0.40 0.36 0.42 0.48 0.53 0.59 0.62 0.66 0.62 0.66 0.67 0.65 0.70 0.69 0.73 0.89 1.05 1.14 1.06 1.01 1.17 1.36 1.51 1.55 1.37 1.28 1.16 1.08 1.15 1.17 1.13 1.19 1.18 1.14 1.10 1.13 1.11 0.99 1.08 1.31 1.61 1.91 2.02
0.30 0.27 0.30 0.36 0.41 0.48 0.57 0.65 0.67 0.70 0.83 0.91 0.80 0.67 0.74 0.87 0.97 1.18 1.26 1.22 1.26 1.42 1.47 1.48 1.47 1.35 1.33 1.28 1.17 1.13 1.09 1.20 1.28 1.11 1.08 1.12 1.23 1.19 1.11 0.94 1.03 1.24 1.59
0.26 0.24 0.26 0.32 0.33 0.36 0.47 0.64 0.74 0.71 0.80 1.02 1.05 1.03 1.07 1.14 1.19 1.34 1.44 1.43 1.44 1.50 1.48 1.59 1.76 1.57 1.40 1.40 1.27 1.15 1.09 1.13 1.19 1.18 1.17 1.15 1.24 1.23 1.16 0.99 0.93 0.76 0.96
0.20 0.20 0.24 0.29 0.32 0.34 0.42 0.53 0.62 0.72 0.90 1.11 1.17 1.23 1.37 1.40 1.42 1.55 1.66 1.69 1.62 1.53 1.59 1.76 2.11 2.00 1.64 1.48 1.50 1.37 1.22 1.16 1.22 1.17 1.20 1.29 1.23 1.19 1.25 1.17 1.00 0.89 0.77
0.13 0.13 0.18 0.27 0.36 0.42 0.48 0.62 0.77 1.00 1.11 1.26 1.41 1.40 1.42 1.48 1.52 1.59 1.80 1.91 1.85 1.82 1.92 1.94 2.17 2.30 2.04 1.83 1.82 1.99 1.77 1.56 1.24 1.02 1.06 1.12 1.15 1.22 1.23 1.26 1.16 1.01 0.96
0.10 0.12 0.18 0.32 0.51 0.72 0.83 1.06 1.33 1.58 1.66 1.59 1.58 1.62 1.61 1.65 1.71 1.68 1.81 2.01 1.97 1.92 1.96 2.15 2.43 2.70 2.60 2.35 2.14 2.27 2.02 1.78 1.66 1.17 0.96 1.01 1.09 1.21 1.24 1.33 1.32 1.19 1.13
0.16 0.23 0.39 0.62 0.92 1.17 1.32 1.52 1.73 1.84 1.88 1.81 1.82 1.81 1.79 1.71 1.64 1.63 1.76 1.97 2.11 2.18 2.23 2.29 2.30 2.63 2.84 2.67 2.54 2.24 1.96 1.82 1.93 1.70 1.22 1.00 1.05 1.09 1.16 1.19 1.30 1.34 1.29
0.45 0.63 0.90 1.15 1.39 1.54 1.59 1.69 1.88 2.04 2.19 2.21 2.09 1.94 1.83 1.80 1.73 1.64 1.69 1.77 1.81 1.89 2.01 2.14 2.22 2.43 2.58 2.72 2.70 2.50 2.25 2.10 1.68 1.66 1.66 1.42 1.17 0.96 0.99 1.13 1.32 1.37 1.36
0.88 1.05 1.25 1.39 1.54 1.53 1.53 1.58 1.72 1.90 2.07 2.09 2.10 2.07 1.94 1.81 1.71 1.62 1.56 1.66 1.68 1.69 1.82 1.93 2.03 2.25 2.43 2.54 2.61 2.49 2.36 2.30 2.05 1.81 1.63 1.62 1.48 1.17 1.00 1.01 1.11 1.23 1.30